Location: Presov
(49.0000°N, 21.2500°E)
Time: 17:01:19
(UTC+01:00)

Envisat - Visible Passes

Search period start: 08 March 2021 00:00
Search period end: 18 March 2021 00:00
Orbit: 764 x 766 km, 98.1° (Epoch: 07 March)

Date Brightness Start Highest point End Pass type
(mag) Time Alt. Az. Time Alt. Az. Time Alt. Az.
08 Mar 5.0 04:34:08 10° NNE 04:38:40 31° E 04:43:09 10° SSE visible
09 Mar 6.0 03:58:24 10° NE 04:01:27 16° E 04:04:28 10° SE visible
10 Mar 4.0 04:59:15 10° NNE 05:04:13 51° E 05:09:10 10° S visible
10 Mar 6.6 18:00:31 10° WSW 18:02:35 12° W 18:04:39 10° WNW visible
11 Mar 5.4 04:22:56 10° NE 04:27:08 26° E 04:31:20 10° SSE visible
12 Mar 6.1 03:47:42 10° ENE 03:49:51 13° E 03:51:59 10° ESE visible
13 Mar 4.5 04:47:54 10° NNE 04:52:43 41° E 04:57:31 10° SSE visible
14 Mar 5.7 04:11:47 10° NE 04:15:36 21° E 04:19:23 10° SE visible
15 Mar 3.5 05:13:07 10° NNE 05:18:13 69° ESE 05:23:17 10° S visible
16 Mar 4.9 04:36:36 10° NNE 04:41:14 34° E 04:45:49 10° SSE visible
17 Mar 5.9 04:00:45 10° NE 04:04:01 17° E 04:07:17 10° SE visible
